Regional Weather Roundup
Issued by NWS Goodland, KS

Home | Current Version | Previous Version | Graphics & Text | Print | Product List | Glossary Off
Versions: 1 2 3 4 5 6 7 8 9 10 11 12 13 14 15 16 17 18 19 20 21 22 23 24 25 26 27 28 29 30 31 32 33 34 35 36 37 38 39 40 41 42 43 44 45 46 47 48 49 50

000
ASUS43 KGLD 272308
RWRGLD

GOODLAND FORECAST AREA HOURLY WEATHER ROUNDUP
NATIONAL WEATHER SERVICE GOODLAND KS
400 PM MST MON FEB 27 2017

...OFFICIAL OBSERVATIONS...

CITY           SKY/WX    TMP DP  RH WIND       PRES   REMARKS
GOODLAND KS    CLOUDY    58  11  15 S16       29.58F
HILL CITY KS   SUNNY     63  15  15 SW10      29.64F
IMPERIAL NEB   SUNNY     55  17  22 SE12      29.57F
MCCOOK NEB     SUNNY     55  21  26 S7        29.61F
AKRON CO       SUNNY     58  10  15 S16       29.49F
BURLINGTON CO  CLOUDY    58  12  16 S21       29.56F
LIMON CO       CLOUDY    68   6   9 SW25G33   29.55S
$$

...UNOFFICIAL OBSERVATIONS...

CITY           SKY/WX    TMP DP  RH WIND       PRES   REMARKS
LENORA KS        N/A     60  32  34 S8          N/A
NORTON KS      SUNNY     57  10  15 S10       29.63F
SHARON SPRINGS   N/A     60  17  18 S14G21      N/A
TRENTON NEB      N/A     59  32  36 S7          N/A
KIT CARSON CO    N/A     60  17  18 MISG        N/A
YUMA CO        FAIR      55  12  18 S17       29.51F
$$



USA.gov is the U.S. government's official web portal to all federal, state and local government web resources and services.